Time,TemperatureF,DewpointF,PressureIn,WindDirection,WindDirectionDegrees,WindSpeedMPH,WindSpeedGustMPH,Humidity,HourlyPrecipIn,Conditions,Clouds,dailyrainin,SolarRadiationWatts/m^2,SoftwareType,DateUTC
2013-01-11 00:04:00,20.0,15.0,-100.00,SE,124,3.0,3.0,81,0.00,,,0.02,0.000000,,2013-01-11 05:04:00,
2013-01-11 00:13:00,20.0,15.0,-100.00,SE,124,3.0,3.0,81,0.00,,,0.02,0.000000,,2013-01-11 05:13:00,
2013-01-11 00:22:00,20.0,15.0,-100.00,SE,124,3.0,3.0,81,0.00,,,0.02,0.000000,,2013-01-11 05:22:00,
2013-01-11 00:53:00,19.0,15.0,-100.00,ESE,122,3.0,4.0,84,0.00,,,0.02,0.000000,,2013-01-11 05:53:00,
2013-01-11 01:03:00,19.0,15.0,-100.00,ESE,122,3.0,4.0,84,0.00,,,0.02,0.000000,,2013-01-11 06:03:00,
2013-01-11 01:12:00,19.0,15.0,-100.00,ESE,122,3.0,4.0,84,0.00,,,0.02,0.000000,,2013-01-11 06:12:00,
2013-01-11 01:22:00,19.0,15.0,-100.00,ESE,122,3.0,4.0,84,0.00,,,0.02,0.000000,,2013-01-11 06:22:00,
2013-01-11 01:52:00,17.0,14.0,-100.00,ESE,120,2.0,3.0,86,0.00,,,0.02,0.000000,,2013-01-11 06:52:00,
2013-01-11 02:02:00,17.0,14.0,-100.00,ESE,120,2.0,3.0,86,0.00,,,0.02,0.000000,,2013-01-11 07:02:00,
2013-01-11 02:12:00,17.0,14.0,-100.00,ESE,120,2.0,3.0,86,0.00,,,0.02,0.000000,,2013-01-11 07:12:00,
2013-01-11 02:22:00,17.0,14.0,-100.00,ESE,120,2.0,3.0,86,0.00,,,0.02,0.000000,,2013-01-11 07:22:00,
2013-01-11 02:53:00,15.0,12.0,-100.00,SE,129,3.0,4.0,88,0.00,,,0.02,0.000000,,2013-01-11 07:53:00,
2013-01-11 03:02:00,15.0,12.0,-100.00,SE,129,3.0,4.0,88,0.00,,,0.02,0.000000,,2013-01-11 08:02:00,
2013-01-11 03:12:00,15.0,12.0,-100.00,SE,129,3.0,4.0,88,0.00,,,0.02,0.000000,,2013-01-11 08:12:00,
2013-01-11 03:22:00,15.0,12.0,-100.00,SE,129,3.0,4.0,88,0.00,,,0.02,0.000000,,2013-01-11 08:22:00,
2013-01-11 03:53:00,14.0,11.0,-100.00,East,101,0.0,4.0,89,0.00,,,0.02,0.000000,,2013-01-11 08:53:00,
2013-01-11 04:02:00,14.0,11.0,-100.00,East,101,0.0,4.0,89,0.00,,,0.02,0.000000,,2013-01-11 09:02:00,
2013-01-11 04:12:00,14.0,11.0,-100.00,East,101,0.0,4.0,89,0.00,,,0.02,0.000000,,2013-01-11 09:12:00,
2013-01-11 04:23:00,14.0,11.0,-100.00,East,101,0.0,4.0,89,0.00,,,0.02,0.000000,,2013-01-11 09:23:00,
2013-01-11 04:52:00,13.0,10.0,-100.00,East,93,0.0,0.0,88,0.00,,,0.02,0.000000,,2013-01-11 09:52:00,
2013-01-11 05:02:00,13.0,10.0,-100.00,East,93,0.0,0.0,88,0.00,,,0.02,0.000000,,2013-01-11 10:02:00,
2013-01-11 05:12:00,13.0,10.0,-100.00,East,93,0.0,0.0,88,0.00,,,0.02,0.000000,,2013-01-11 10:12:00,
2013-01-11 05:22:00,13.0,10.0,-100.00,East,93,0.0,0.0,88,0.00,,,0.02,0.000000,,2013-01-11 10:22:00,
2013-01-11 05:53:00,12.0,9.0,-100.00,West,270,1.0,3.0,87,0.00,,,0.02,0.000000,,2013-01-11 10:53:00,
2013-01-11 06:03:00,12.0,9.0,-100.00,West,270,1.0,3.0,87,0.00,,,0.02,0.000000,,2013-01-11 11:03:00,
2013-01-11 06:12:00,12.0,9.0,-100.00,West,270,1.0,3.0,87,0.00,,,0.02,0.000000,,2013-01-11 11:12:00,
2013-01-11 06:22:00,12.0,9.0,-100.00,West,270,1.0,3.0,87,0.00,,,0.02,0.000000,,2013-01-11 11:22:00,
2013-01-11 06:53:00,11.0,8.0,-100.00,SE,124,1.0,3.0,86,0.00,,,0.02,0.000000,,2013-01-11 11:53:00,
2013-01-11 07:03:00,11.0,8.0,-100.00,SE,124,1.0,3.0,86,0.00,,,0.02,0.000000,,2013-01-11 12:03:00,
2013-01-11 07:12:00,11.0,8.0,-100.00,SE,124,1.0,3.0,86,0.00,,,0.02,0.000000,,2013-01-11 12:12:00,
2013-01-11 07:22:00,11.0,8.0,-100.00,SE,124,1.0,3.0,86,0.00,,,0.02,0.000000,,2013-01-11 12:22:00,
2013-01-11 07:53:00,11.0,8.0,-100.00,SE,127,0.0,2.0,87,0.00,,,-99.99,2.000000,,2013-01-11 12:53:00,
2013-01-11 08:03:00,11.0,8.0,-100.00,SE,127,0.0,2.0,87,0.00,,,-99.99,2.000000,,2013-01-11 13:03:00,
2013-01-11 08:13:00,11.0,8.0,-100.00,SE,127,0.0,2.0,87,0.00,,,-99.99,2.000000,,2013-01-11 13:13:00,
2013-01-11 08:22:00,11.0,8.0,-100.00,SE,127,0.0,2.0,87,0.00,,,-99.99,2.000000,,2013-01-11 13:22:00,
2013-01-11 08:53:00,12.0,8.0,-100.00,West,279,1.0,3.0,83,0.00,,,-99.99,29.000000,,2013-01-11 13:53:00,
2013-01-11 09:03:00,12.0,8.0,-100.00,West,279,1.0,3.0,83,0.00,,,-99.99,29.000000,,2013-01-11 14:03:00,
2013-01-11 09:12:00,12.0,8.0,-100.00,West,279,1.0,3.0,83,0.00,,,-99.99,29.000000,,2013-01-11 14:12:00,
2013-01-11 09:23:00,12.0,8.0,-100.00,West,279,1.0,3.0,83,0.00,,,-99.99,29.000000,,2013-01-11 14:23:00,
2013-01-11 09:53:00,16.0,11.0,-100.00,WNW,287,0.0,0.0,82,0.00,,,0.02,89.000000,,2013-01-11 14:53:00,
2013-01-11 10:03:00,16.0,11.0,-100.00,WNW,287,0.0,0.0,82,0.00,,,0.02,89.000000,,2013-01-11 15:03:00,
2013-01-11 10:13:00,16.0,11.0,-100.00,WNW,287,0.0,0.0,82,0.00,,,0.02,89.000000,,2013-01-11 15:13:00,
2013-01-11 10:23:00,16.0,11.0,-100.00,WNW,287,0.0,0.0,82,0.00,,,0.02,89.000000,,2013-01-11 15:23:00,
2013-01-11 10:53:00,22.0,17.0,-100.00,West,278,1.0,3.0,80,0.00,,,0.02,141.000000,,2013-01-11 15:53:00,
2013-01-11 11:03:00,22.0,17.0,-100.00,West,278,1.0,3.0,80,0.00,,,0.02,141.000000,,2013-01-11 16:03:00,
2013-01-11 11:13:00,22.0,17.0,-100.00,West,278,1.0,3.0,80,0.00,,,0.02,141.000000,,2013-01-11 16:13:00,
2013-01-11 11:23:00,22.0,17.0,-100.00,West,278,1.0,3.0,80,0.00,,,0.02,141.000000,,2013-01-11 16:23:00,
2013-01-11 11:53:00,27.0,18.0,-100.00,WSW,254,2.0,4.0,68,0.00,,,0.02,160.000000,,2013-01-11 16:53:00,
2013-01-11 12:03:00,27.0,18.0,-100.00,WSW,254,2.0,4.0,68,0.00,,,0.02,160.000000,,2013-01-11 17:03:00,
2013-01-11 12:12:00,27.0,18.0,-100.00,WSW,254,2.0,4.0,68,0.00,,,0.02,160.000000,,2013-01-11 17:12:00,
2013-01-11 12:22:00,27.0,18.0,-100.00,WSW,254,2.0,4.0,68,0.00,,,0.02,160.000000,,2013-01-11 17:22:00,
2013-01-11 12:53:00,32.0,18.0,-100.00,SSE,159,2.0,8.0,56,0.00,,,0.02,176.000000,,2013-01-11 17:53:00,
2013-01-11 13:04:00,32.0,18.0,-100.00,SSE,159,2.0,8.0,56,0.00,,,0.02,176.000000,,2013-01-11 18:04:00,
2013-01-11 13:13:00,32.0,18.0,-100.00,SSE,159,2.0,8.0,56,0.00,,,0.02,176.000000,,2013-01-11 18:13:00,
2013-01-11 13:23:00,32.0,18.0,-100.00,SSE,159,2.0,8.0,56,0.00,,,0.02,176.000000,,2013-01-11 18:23:00,
2013-01-11 13:53:00,34.0,18.0,-100.00,WSW,257,1.0,8.0,52,0.00,,,0.02,149.000000,,2013-01-11 18:53:00,
2013-01-11 14:03:00,34.0,18.0,-100.00,WSW,257,1.0,8.0,52,0.00,,,0.02,149.000000,,2013-01-11 19:03:00,
2013-01-11 14:13:00,34.0,18.0,-100.00,WSW,257,1.0,8.0,52,0.00,,,0.02,149.000000,,2013-01-11 19:13:00,
2013-01-11 14:22:00,34.0,18.0,-100.00,WSW,257,1.0,8.0,52,0.00,,,0.02,149.000000,,2013-01-11 19:22:00,
2013-01-11 14:54:00,33.0,18.0,-100.00,East,100,6.0,10.0,54,0.00,,,0.01,97.000000,,2013-01-11 19:54:00,
2013-01-11 15:03:00,33.0,18.0,-100.00,East,100,6.0,10.0,54,0.00,,,0.01,97.000000,,2013-01-11 20:03:00,
2013-01-11 15:13:00,33.0,18.0,-100.00,East,100,6.0,10.0,54,0.00,,,0.01,97.000000,,2013-01-11 20:13:00,
2013-01-11 15:22:00,33.0,18.0,-100.00,East,100,6.0,10.0,54,0.00,,,0.01,97.000000,,2013-01-11 20:22:00,
2013-01-11 15:53:00,33.0,17.0,-100.00,SE,140,5.0,11.0,51,0.00,,,0.01,38.000000,,2013-01-11 20:53:00,
2013-01-11 16:03:00,33.0,17.0,-100.00,SE,140,5.0,11.0,51,0.00,,,0.01,38.000000,,2013-01-11 21:03:00,
2013-01-11 16:13:00,33.0,17.0,-100.00,SE,140,5.0,11.0,51,0.00,,,0.01,38.000000,,2013-01-11 21:13:00,
2013-01-11 16:23:00,33.0,17.0,-100.00,SE,140,5.0,11.0,51,0.00,,,0.01,38.000000,,2013-01-11 21:23:00,
2013-01-11 16:53:00,31.0,20.0,-100.00,South,172,4.0,11.0,62,0.00,,,0.00,5.000000,,2013-01-11 21:53:00,
2013-01-11 17:03:00,31.0,20.0,-100.00,South,172,4.0,11.0,62,0.00,,,0.00,5.000000,,2013-01-11 22:03:00,
2013-01-11 17:13:00,31.0,20.0,-100.00,South,172,4.0,11.0,62,0.00,,,0.00,5.000000,,2013-01-11 22:13:00,
2013-01-11 17:23:00,31.0,20.0,-100.00,South,172,4.0,11.0,62,0.00,,,0.00,5.000000,,2013-01-11 22:23:00,
2013-01-11 17:53:00,31.0,20.0,-100.00,SSE,164,4.0,14.0,63,0.00,,,0.00,0.000000,,2013-01-11 22:53:00,
2013-01-11 18:03:00,31.0,20.0,-100.00,SSE,164,4.0,14.0,63,0.00,,,0.00,0.000000,,2013-01-11 23:03:00,
2013-01-11 18:13:00,31.0,20.0,-100.00,SSE,164,4.0,14.0,63,0.00,,,0.00,0.000000,,2013-01-11 23:13:00,
2013-01-11 18:23:00,31.0,20.0,-100.00,SSE,164,4.0,14.0,63,0.00,,,0.00,0.000000,,2013-01-11 23:23:00,
2013-01-11 18:54:00,31.0,21.0,-100.00,SE,134,5.0,11.0,65,0.00,,,0.00,0.000000,,2013-01-11 23:54:00,
2013-01-11 19:03:00,31.0,21.0,-100.00,SE,134,5.0,11.0,65,0.00,,,0.00,0.000000,,2013-01-12 00:03:00,
2013-01-11 19:12:00,31.0,21.0,-100.00,SE,134,5.0,11.0,65,0.00,,,0.00,0.000000,,2013-01-12 00:12:00,
2013-01-11 19:23:00,31.0,21.0,-100.00,SE,134,5.0,11.0,65,0.00,,,0.00,0.000000,,2013-01-12 00:23:00,
2013-01-11 19:53:00,31.0,21.0,-100.00,SE,130,4.0,13.0,65,0.00,,,0.00,0.000000,,2013-01-12 00:53:00,
2013-01-11 20:03:00,31.0,21.0,-100.00,SE,130,4.0,13.0,65,0.00,,,0.00,0.000000,,2013-01-12 01:03:00,
2013-01-11 20:12:00,31.0,21.0,-100.00,SE,130,4.0,13.0,65,0.00,,,0.00,0.000000,,2013-01-12 01:12:00,
2013-01-11 20:22:00,31.0,21.0,-100.00,SE,130,4.0,13.0,65,0.00,,,0.00,0.000000,,2013-01-12 01:22:00,
2013-01-11 20:53:00,31.0,21.0,-100.00,ESE,115,4.0,11.0,65,0.00,,,0.00,0.000000,,2013-01-12 01:53:00,
2013-01-11 21:02:00,31.0,21.0,-100.00,ESE,115,4.0,11.0,65,0.00,,,0.00,0.000000,,2013-01-12 02:02:00,
2013-01-11 21:12:00,31.0,21.0,-100.00,ESE,115,4.0,11.0,65,0.00,,,0.00,0.000000,,2013-01-12 02:12:00,
2013-01-11 21:22:00,31.0,21.0,-100.00,ESE,115,4.0,11.0,65,0.00,,,0.00,0.000000,,2013-01-12 02:22:00,
2013-01-11 21:53:00,31.0,22.0,-100.00,SE,146,3.0,10.0,68,0.00,,,0.00,0.000000,,2013-01-12 02:53:00,
2013-01-11 22:03:00,31.0,22.0,-100.00,SE,146,3.0,10.0,68,0.00,,,0.00,0.000000,,2013-01-12 03:03:00,
2013-01-11 22:12:00,31.0,22.0,-100.00,SE,146,3.0,10.0,68,0.00,,,0.00,0.000000,,2013-01-12 03:12:00,
2013-01-11 22:22:00,31.0,22.0,-100.00,SE,146,3.0,10.0,68,0.00,,,0.00,0.000000,,2013-01-12 03:22:00,
2013-01-11 22:53:00,31.0,24.0,-100.00,ESE,123,5.0,11.0,74,0.00,,,0.00,0.000000,,2013-01-12 03:53:00,
2013-01-11 23:03:00,31.0,24.0,-100.00,ESE,123,5.0,11.0,74,0.00,,,0.00,0.000000,,2013-01-12 04:03:00,
2013-01-11 23:12:00,31.0,24.0,-100.00,ESE,123,5.0,11.0,74,0.00,,,0.00,0.000000,,2013-01-12 04:12:00,
2013-01-11 23:22:00,31.0,24.0,-100.00,ESE,123,5.0,11.0,74,0.00,,,0.00,0.000000,,2013-01-12 04:22:00,
2013-01-11 23:52:00,31.0,25.0,-100.00,ESE,122,6.0,12.0,78,0.00,,,0.00,0.000000,,2013-01-12 04:52:00,